Regional Weather Roundup
Issued by NWS

Home | Current Version | Previous Version | Graphics & Text | Print | Product List | Glossary On
Versions: 1 2 3 4 5 6 7 8 9 10 11 12 13 14 15 16 17 18 19 20 21 22 23 24 25 26 27 28 29 30 31 32 33 34 35 36 37 38 39 40 41 42 43 44 45 46 47 48 49 50
000
ASUS43 KTOP 290159
RWRKS

WEATHER ROUNDUP FOR KANSAS
NATIONAL WEATHER SERVICE GOODLAND KS
900 PM CDT TUE MAR 28 2017

NOTE:  "FAIR" INDICATES FEW OR NO CLOUDS BELOW 12,000 FEET WITH NO
SIGNIFICANT WEATHER AND/OR OBSTRUCTIONS TO VISIBILITY.

KSZ001>006-013>018-027>032-041>047-290300-
NORTHWEST KANSAS

CITY           SKY/WX    TMP DP  RH WIND       PRES   REMARKS
GOODLAND       CLOUDY    41  41 100 E16       29.95R FOG
HAYS             N/A     46  45  96 E21G32    29.90F FOG
HILL CITY      CLOUDY    46  45  96 NE13      29.99R FOG
RUSSELL        RAIN      47  45  93 E12       29.97R FOG
$$

KSZ061>065-074>080-084>089-290300-
SOUTHWEST KANSAS

CITY           SKY/WX    TMP DP  RH WIND       PRES   REMARKS
DODGE CITY     CLOUDY    46  44  93 NE21G32   29.81S
ELKHART          N/A     43  38  83 NE12        N/A
GARDEN CITY    CLOUDY    45  43  93 NE20      29.85S
GREAT BEND     RAIN      48  47  96 NE16      29.92F FOG
LIBERAL        CLOUDY    46  41  81 NE10      29.82F
$$

KSZ066>073-081>083-090>101-290300-
SOUTHEAST KANSAS

CITY           SKY/WX    TMP DP  RH WIND       PRES   REMARKS
CHANUTE        CLOUDY    57  51  80 NE14      29.88F
COFFEYVILLE    CLOUDY    61  52  72 E17       29.83F
HUTCHINSON     HVY RAIN  50  48  93 NW12      29.95R FOG
MEDICINE LODGE   N/A     48  46  93 NE15G24   29.89R
NEWTON         LGT RAIN  50  48  93 NE20G26   29.86F
PARSONS        CLOUDY    60  51  72 NE12G21   29.86F
WICHITA INTL   TSTM      51  50  96 NE17      29.84F FOG
WICHITA JABRA  RAIN      51  50  96 NE13      29.84F
WICHITA MCCONL TSTM      52  50  93 NE16      29.84F FOG
WINFIELD       TSTM      56  51  84 E18G24    29.78S
$$

KSZ007>012-019>026-033>040-048>060-102>105-290300-
NORTHEAST KANSAS

CITY           SKY/WX    TMP DP  RH WIND       PRES   REMARKS
CONCORDIA      LGT RAIN  46  45  96 NE10      30.01R FOG
EMPORIA        CLOUDY    53  51  93 NE17G24   29.91R
LAWRENCE       CLOUDY    53  51  93 NE13      29.97F
MANHATTAN      LGT RAIN  52  49  89 E7        30.02R FOG
OLATHE IND     CLOUDY    53  49  86 NE14G22   29.96F
OLATHE EXE     CLOUDY    52  51  97 E13       29.96F
SALINA         LGT RAIN  51  48  89 NE10      29.96F
TOPEKA BILLARD CLOUDY    53  51  93 E15       29.98S
TOPEKA FORBES  CLOUDY    54  50  86 E13       29.97R
$$




USA.gov is the U.S. government's official web portal to all federal, state and local government web resources and services.